Time,TemperatureF,DewpointF,PressureIn,WindDirection,WindDirectionDegrees,WindSpeedMPH,WindSpeedGustMPH,Humidity,HourlyPrecipIn,Conditions,Clouds,dailyrainin,SoftwareType,DateUTC
2013-02-11 00:06:00,44.9,37.0,29.82,SSE,156,1.0,10.0,73,0.00,,,0.00,weatherlink.com 1.10,2013-02-11 05:06:00,
2013-02-11 00:21:00,44.7,37.0,29.81,SSE,164,3.0,6.0,74,0.00,,,0.00,weatherlink.com 1.10,2013-02-11 05:21:00,
2013-02-11 00:36:00,44.6,37.0,29.81,SSW,193,4.0,7.0,76,0.00,,,0.00,weatherlink.com 1.10,2013-02-11 05:36:00,
2013-02-11 00:52:00,44.6,38.0,29.81,SE,140,3.0,8.0,78,0.00,,,0.00,weatherlink.com 1.10,2013-02-11 05:52:00,
2013-02-11 01:07:00,44.5,38.0,29.81,South,190,4.0,9.0,79,0.00,,,0.00,weatherlink.com 1.10,2013-02-11 06:07:00,
2013-02-11 01:21:00,44.3,39.0,29.80,SE,142,2.0,7.0,80,0.00,,,0.00,weatherlink.com 1.10,2013-02-11 06:21:00,
2013-02-11 01:36:00,44.3,39.0,29.79,SSE,155,2.0,7.0,81,0.00,,,0.00,weatherlink.com 1.10,2013-02-11 06:36:00,
2013-02-11 01:51:00,44.1,39.0,29.79,SSE,166,2.0,7.0,82,0.00,,,0.00,weatherlink.com 1.10,2013-02-11 06:51:00,
2013-02-11 02:06:00,43.9,39.0,29.79,South,170,5.0,7.0,84,0.00,,,0.00,weatherlink.com 1.10,2013-02-11 07:06:00,
2013-02-11 02:21:00,43.8,40.0,29.78,SE,146,2.0,10.0,86,0.00,,,0.00,weatherlink.com 1.10,2013-02-11 07:21:00,
2013-02-11 02:37:00,43.7,40.0,29.78,SSE,159,4.0,6.0,88,0.00,,,0.00,weatherlink.com 1.10,2013-02-11 07:37:00,
2013-02-11 02:52:00,43.5,41.0,29.76,SSE,164,4.0,7.0,90,0.00,,,0.00,weatherlink.com 1.10,2013-02-11 07:52:00,
2013-02-11 03:07:00,43.4,41.0,29.76,SSE,160,3.0,6.0,90,0.00,,,0.00,weatherlink.com 1.10,2013-02-11 08:07:00,
2013-02-11 03:22:00,43.5,41.0,29.76,South,177,1.0,7.0,91,0.00,,,0.00,weatherlink.com 1.10,2013-02-11 08:22:00,
2013-02-11 03:37:00,43.8,41.0,29.75,SSE,164,2.0,8.0,91,0.00,,,0.00,weatherlink.com 1.10,2013-02-11 08:37:00,
2013-02-11 03:52:00,43.9,42.0,29.76,SSE,154,2.0,8.0,91,0.00,,,0.00,weatherlink.com 1.10,2013-02-11 08:52:00,
2013-02-11 04:07:00,44.2,42.0,29.74,SE,143,2.0,12.0,91,0.00,,,0.00,weatherlink.com 1.10,2013-02-11 09:07:00,
2013-02-11 04:22:00,44.5,42.0,29.74,South,172,2.0,8.0,92,0.00,,,0.00,weatherlink.com 1.10,2013-02-11 09:22:00,
2013-02-11 04:37:00,44.6,43.0,29.74,SSE,167,3.0,9.0,92,0.00,,,0.00,weatherlink.com 1.10,2013-02-11 09:37:00,
2013-02-11 04:52:00,44.6,43.0,29.73,SSW,197,4.0,7.0,92,0.00,,,0.00,weatherlink.com 1.10,2013-02-11 09:52:00,
2013-02-11 05:07:00,44.6,43.0,29.73,South,170,4.0,5.0,92,0.00,,,0.00,weatherlink.com 1.10,2013-02-11 10:07:00,
2013-02-11 05:22:00,44.7,43.0,29.73,SSW,208,0.0,8.0,92,0.00,,,0.00,weatherlink.com 1.10,2013-02-11 10:22:00,
2013-02-11 05:37:00,45.1,43.0,29.73,South,191,2.0,6.0,92,0.00,,,0.00,weatherlink.com 1.10,2013-02-11 10:37:00,
2013-02-11 05:52:00,45.2,43.0,29.72,South,181,1.0,6.0,93,0.00,,,0.00,weatherlink.com 1.10,2013-02-11 10:52:00,
2013-02-11 06:07:00,45.3,43.0,29.71,SSW,205,5.0,6.0,93,0.00,,,0.00,weatherlink.com 1.10,2013-02-11 11:07:00,
2013-02-11 06:22:00,45.4,44.0,29.71,SSE,166,2.0,8.0,93,0.00,,,0.00,weatherlink.com 1.10,2013-02-11 11:22:00,
2013-02-11 06:37:00,45.4,44.0,29.71,South,174,2.0,10.0,93,0.00,,,0.00,weatherlink.com 1.10,2013-02-11 11:37:00,
2013-02-11 06:52:00,45.2,43.0,29.70,South,190,3.0,7.0,92,0.00,,,0.00,weatherlink.com 1.10,2013-02-11 11:52:00,
2013-02-11 07:07:00,45.1,43.0,29.70,South,185,2.0,8.0,93,0.00,,,0.00,weatherlink.com 1.10,2013-02-11 12:07:00,
2013-02-11 07:22:00,45.2,43.0,29.69,SSE,160,3.0,8.0,93,0.00,,,0.00,weatherlink.com 1.10,2013-02-11 12:22:00,
2013-02-11 07:37:00,45.2,43.0,29.68,SSE,158,5.0,5.0,93,0.00,,,0.00,weatherlink.com 1.10,2013-02-11 12:37:00,
2013-02-11 07:52:00,45.2,43.0,29.68,SSW,193,2.0,6.0,92,0.00,,,0.00,weatherlink.com 1.10,2013-02-11 12:52:00,
2013-02-11 08:07:00,45.5,44.0,29.68,SW,231,4.0,7.0,93,0.00,,,0.00,weatherlink.com 1.10,2013-02-11 13:07:00,
2013-02-11 08:22:00,46.0,44.0,29.68,SSE,168,2.0,7.0,92,0.00,,,0.00,weatherlink.com 1.10,2013-02-11 13:22:00,
2013-02-11 08:37:00,46.7,44.0,29.69,South,182,8.0,10.0,91,0.00,,,0.00,weatherlink.com 1.10,2013-02-11 13:37:00,
2013-02-11 08:52:00,47.2,44.0,29.68,SSW,206,2.0,6.0,88,0.00,,,0.00,weatherlink.com 1.10,2013-02-11 13:52:00,
2013-02-11 09:07:00,48.1,43.0,29.68,SSW,195,7.0,15.0,83,0.00,,,0.00,weatherlink.com 1.10,2013-02-11 14:07:00,
2013-02-11 09:37:00,49.9,43.0,29.68,West,276,3.0,8.0,78,0.00,,,0.00,weatherlink.com 1.10,2013-02-11 14:37:00,
2013-02-11 09:52:00,50.9,43.0,29.67,SW,222,3.0,17.0,75,0.00,,,0.00,weatherlink.com 1.10,2013-02-11 14:52:00,
2013-02-11 10:07:00,49.9,41.0,29.68,NW,322,4.0,13.0,71,0.00,,,0.00,weatherlink.com 1.10,2013-02-11 15:07:00,
2013-02-11 10:37:00,48.3,39.0,29.69,WNW,299,6.0,17.0,70,0.00,,,0.00,weatherlink.com 1.10,2013-02-11 15:37:00,
2013-02-11 10:53:00,47.7,38.0,29.69,SSW,211,7.0,16.0,70,0.00,,,0.00,weatherlink.com 1.10,2013-02-11 15:53:00,
2013-02-11 11:08:00,47.3,38.0,29.70,WNW,282,8.0,26.0,71,0.00,,,0.00,weatherlink.com 1.10,2013-02-11 16:08:00,
2013-02-11 11:23:00,45.9,37.0,29.71,South,187,8.0,21.0,70,0.00,,,0.00,weatherlink.com 1.10,2013-02-11 16:23:00,
2013-02-11 11:39:00,45.3,36.0,29.72,WNW,293,6.0,17.0,69,0.00,,,0.00,weatherlink.com 1.10,2013-02-11 16:39:00,
2013-02-11 11:53:00,43.9,34.0,29.73,NW,304,9.0,22.0,67,0.00,,,0.00,weatherlink.com 1.10,2013-02-11 16:53:00,
2013-02-11 12:08:00,43.3,33.0,29.73,WSW,247,8.0,21.0,68,0.00,,,0.00,weatherlink.com 1.10,2013-02-11 17:08:00,
2013-02-11 12:23:00,42.4,32.0,29.74,West,278,7.0,18.0,67,0.00,,,0.00,weatherlink.com 1.10,2013-02-11 17:23:00,
2013-02-11 12:39:00,40.3,31.0,29.75,SW,219,16.0,25.0,70,0.00,,,0.00,weatherlink.com 1.10,2013-02-11 17:39:00,
2013-02-11 12:53:00,39.7,31.0,29.75,SW,218,5.0,19.0,71,0.00,,,0.00,weatherlink.com 1.10,2013-02-11 17:53:00,
2013-02-11 13:08:00,40.1,31.0,29.75,South,177,7.0,22.0,71,0.00,,,0.00,weatherlink.com 1.10,2013-02-11 18:08:00,
2013-02-11 13:24:00,40.2,31.0,29.75,West,270,10.0,25.0,69,0.00,,,0.00,weatherlink.com 1.10,2013-02-11 18:24:00,
2013-02-11 13:39:00,40.6,30.0,29.75,WNW,291,6.0,25.0,65,0.00,,,0.00,weatherlink.com 1.10,2013-02-11 18:39:00,
2013-02-11 13:54:00,40.5,29.0,29.75,WNW,292,6.0,23.0,65,0.00,,,0.00,weatherlink.com 1.10,2013-02-11 18:54:00,
2013-02-11 14:09:00,40.1,29.0,29.75,NW,326,5.0,24.0,66,0.00,,,0.00,weatherlink.com 1.10,2013-02-11 19:09:00,
2013-02-11 14:24:00,39.7,30.0,29.75,SSW,211,5.0,13.0,69,0.00,,,0.00,weatherlink.com 1.10,2013-02-11 19:24:00,
2013-02-11 14:39:00,39.6,30.0,29.76,West,272,4.0,16.0,69,0.00,,,0.00,weatherlink.com 1.10,2013-02-11 19:39:00,
2013-02-11 14:54:00,39.0,30.0,29.76,NNW,334,6.0,22.0,69,0.00,,,0.00,weatherlink.com 1.10,2013-02-11 19:54:00,
2013-02-11 15:09:00,38.6,30.0,29.78,West,266,5.0,15.0,70,0.00,,,0.00,weatherlink.com 1.10,2013-02-11 20:09:00,
2013-02-11 15:24:00,37.7,29.0,29.79,West,276,2.0,22.0,71,0.00,,,0.00,weatherlink.com 1.10,2013-02-11 20:24:00,
2013-02-11 15:39:00,37.2,29.0,29.79,SSW,206,3.0,14.0,72,0.00,,,0.00,weatherlink.com 1.10,2013-02-11 20:39:00,
2013-02-11 15:54:00,37.3,29.0,29.80,SW,216,10.0,17.0,72,0.00,,,0.00,weatherlink.com 1.10,2013-02-11 20:54:00,
2013-02-11 16:09:00,37.5,28.0,29.82,SW,225,6.0,20.0,69,0.00,,,0.00,weatherlink.com 1.10,2013-02-11 21:09:00,
2013-02-11 16:24:00,37.3,27.0,29.82,SW,221,4.0,23.0,67,0.00,,,0.00,weatherlink.com 1.10,2013-02-11 21:24:00,
2013-02-11 16:39:00,37.0,28.0,29.82,WSW,245,7.0,15.0,69,0.00,,,0.00,weatherlink.com 1.10,2013-02-11 21:39:00,
2013-02-11 16:54:00,36.7,27.0,29.82,SW,226,3.0,16.0,69,0.00,,,0.00,weatherlink.com 1.10,2013-02-11 21:54:00,
2013-02-11 17:09:00,36.7,27.0,29.83,West,280,10.0,21.0,69,0.00,,,0.00,weatherlink.com 1.10,2013-02-11 22:09:00,
2013-02-11 17:24:00,36.6,27.0,29.83,NW,310,8.0,26.0,69,0.00,,,0.00,weatherlink.com 1.10,2013-02-11 22:24:00,
2013-02-11 17:39:00,36.5,26.0,29.83,WSW,237,4.0,18.0,66,0.00,,,0.00,weatherlink.com 1.10,2013-02-11 22:39:00,
2013-02-11 17:54:00,36.5,26.0,29.84,West,278,4.0,21.0,66,0.00,,,0.00,weatherlink.com 1.10,2013-02-11 22:54:00,
2013-02-11 18:09:00,36.4,26.0,29.85,South,182,3.0,17.0,66,0.00,,,0.00,weatherlink.com 1.10,2013-02-11 23:09:00,
2013-02-11 18:24:00,36.3,26.0,29.85,WNW,294,9.0,15.0,66,0.00,,,0.00,weatherlink.com 1.10,2013-02-11 23:24:00,
2013-02-11 18:39:00,36.2,26.0,29.86,SW,233,6.0,18.0,67,0.00,,,0.00,weatherlink.com 1.10,2013-02-11 23:39:00,
2013-02-11 18:54:00,36.1,26.0,29.87,SSW,202,7.0,17.0,68,0.00,,,0.00,weatherlink.com 1.10,2013-02-11 23:54:00,
2013-02-11 19:09:00,36.1,26.0,29.86,SSE,155,2.0,17.0,68,0.00,,,0.00,weatherlink.com 1.10,2013-02-12 00:09:00,
2013-02-11 19:24:00,35.9,26.0,29.87,SSW,209,4.0,16.0,68,0.00,,,0.00,weatherlink.com 1.10,2013-02-12 00:24:00,
2013-02-11 19:39:00,35.8,27.0,29.88,West,265,7.0,14.0,70,0.00,,,0.00,weatherlink.com 1.10,2013-02-12 00:39:00,
2013-02-11 19:54:00,35.8,27.0,29.88,West,276,11.0,13.0,71,0.00,,,0.00,weatherlink.com 1.10,2013-02-12 00:54:00,
2013-02-11 20:10:00,35.7,27.0,29.88,West,259,7.0,20.0,70,0.00,,,0.00,weatherlink.com 1.10,2013-02-12 01:10:00,
2013-02-11 20:25:00,35.7,27.0,29.88,WNW,299,6.0,18.0,71,0.00,,,0.00,weatherlink.com 1.10,2013-02-12 01:25:00,
2013-02-11 20:39:00,35.7,27.0,29.88,SW,235,7.0,19.0,70,0.00,,,0.00,weatherlink.com 1.10,2013-02-12 01:39:00,
2013-02-11 20:54:00,35.7,27.0,29.88,WSW,253,8.0,21.0,70,0.00,,,0.00,weatherlink.com 1.10,2013-02-12 01:54:00,
2013-02-11 21:10:00,35.6,27.0,29.89,SW,224,2.0,17.0,70,0.00,,,0.00,weatherlink.com 1.10,2013-02-12 02:10:00,
2013-02-11 21:24:00,35.4,27.0,29.89,WSW,256,4.0,18.0,71,0.00,,,0.00,weatherlink.com 1.10,2013-02-12 02:24:00,
2013-02-11 21:39:00,35.2,27.0,29.90,SW,227,6.0,15.0,71,0.00,,,0.00,weatherlink.com 1.10,2013-02-12 02:39:00,
2013-02-11 21:54:00,35.1,27.0,29.90,WSW,249,5.0,16.0,71,0.00,,,0.00,weatherlink.com 1.10,2013-02-12 02:54:00,
2013-02-11 22:09:00,34.9,26.0,29.91,SW,234,5.0,18.0,71,0.00,,,0.00,weatherlink.com 1.10,2013-02-12 03:09:00,
2013-02-11 22:25:00,34.8,26.0,29.91,SSW,204,4.0,15.0,71,0.00,,,0.00,weatherlink.com 1.10,2013-02-12 03:25:00,
2013-02-11 22:40:00,34.7,26.0,29.91,WNW,296,10.0,19.0,70,0.00,,,0.00,weatherlink.com 1.10,2013-02-12 03:40:00,
2013-02-11 22:55:00,34.5,26.0,29.91,West,268,3.0,18.0,70,0.00,,,0.00,weatherlink.com 1.10,2013-02-12 03:55:00,
2013-02-11 23:10:00,34.3,25.0,29.91,SSW,197,2.0,16.0,70,0.00,,,0.00,weatherlink.com 1.10,2013-02-12 04:10:00,
2013-02-11 23:25:00,34.2,26.0,29.91,WNW,294,7.0,13.0,71,0.00,,,0.00,weatherlink.com 1.10,2013-02-12 04:25:00,
2013-02-11 23:40:00,34.1,26.0,29.93,WSW,239,4.0,15.0,71,0.00,,,0.00,weatherlink.com 1.10,2013-02-12 04:40:00,
2013-02-11 23:55:00,34.0,26.0,29.93,SW,236,4.0,15.0,72,0.00,,,0.00,weatherlink.com 1.10,2013-02-12 04:55:00,